#timestamp,LO_Frequency,Hit 
1505149215.6,286047001.1,N
1505149235.4,286046998.7,N
1505149255.3,286046999.0,N
1505149275.1,286046997.8,N
1505149295.8,286046996.6,N
1505149315.7,286046999.8,N
1505149335.5,286047003.0,N
1505149355.3,286047004.6,N
1505149375.2,286047008.6,N
1505149395.9,286047013.8,P
1505149415.7,286047015.6,N
1505149435.6,286047011.5,N
1505149455.4,286047013.7,N
1505149475.2,286047014.9,N
1505149495.1,286047013.6,N
1505149496.0,286047013.6,N
1505149515.8,286047014.9,P
1505149535.6,286047005.8,P
1505149555.5,286047001.4,N
1505149575.3,286047001.6,N
1505149595.1,286047004.2,N
1505149615.9,286047005.4,N
1505149635.7,286047005.8,N
1505149655.5,286047005.5,N
1505149675.4,286047003.6,N
1505149695.2,286047007.1,N
1505149715.0,286047008.5,N
1505149715.9,286047008.5,N
1505149735.8,286047007.2,N
1505149755.6,286047007.1,N
1505149775.4,286047003.4,N
1505149795.3,286047005.5,N
1505149815.1,286047007.5,N
1505149816.0,286047007.5,N
1505149835.8,286047006.1,N
1505149855.7,286047006.3,N
1505149875.5,286047010.1,P
1505149895.3,286047004.7,N
1505149915.2,286047004.5,N
1505149935.9,286047003.0,N
1505149955.7,286047007.2,N
1505149975.6,286047004.1,N
1505149995.4,286046999.9,N
1505150015.2,286046998.7,N
1505150035.1,286047000.2,N
1505150036.0,286047000.2,N
1505150055.8,286047001.6,N
1505150075.6,286047003.4,N
1505150095.4,286047004.9,N
1505150115.3,286047004.6,N
1505150135.1,286047006.9,N
1505150155.8,286047007.4,N
1505150175.7,286047009.1,N
1505150195.5,286047009.1,N
1505150215.3,286047005.1,N
1505150235.2,286047006.4,N
1505150255.9,286047008.1,N
1505150275.7,286047007.7,N
1505150295.6,286047004.6,N
1505150315.4,286047000.0,N
1505150335.2,286046996.9,N
1505150355.1,286046997.2,N
1505150356.0,286046997.2,N
1505150375.8,286047001.1,N
1505150395.6,286046998.4,N
1505150415.5,286046997.0,N
1505150435.3,286046993.5,N
1505150455.1,286046991.8,N
1505150475.8,286046992.3,N
1505150495.7,286046994.4,N
1505150515.5,286046993.0,N
1505150535.3,286046992.1,N
1505150555.2,286046994.5,N
1505150575.9,286046993.1,N
1505150595.7,286046989.0,N
1505150615.6,286046989.3,N
1505150635.4,286046987.0,N
1505150655.2,286046987.2,N
1505150675.1,286046989.4,N
1505150676.0,286046989.4,N
1505150695.8,286046988.7,N
1505150715.6,286046983.9,N
1505150735.5,286046985.7,N
1505150755.3,286046984.4,N
1505150775.1,286046983.8,N
1505150795.9,286046984.6,N
1505150815.7,286046984.7,N
1505150835.5,286046982.7,N
1505150855.3,286046983.9,N
1505150875.2,286046986.4,N
1505150895.0,286046984.4,P
1505150895.9,286046984.4,P
1505150915.8,286046992.2,N
1505150935.6,286046992.8,N
1505150955.4,286046994.7,N
1505150975.2,286046995.2,N
1505150995.1,286046995.3,N
1505150996.0,286046995.3,N
1505151015.8,286046994.3,N
1505151035.6,286046990.7,N
1505151055.5,286046995.8,N
1505151075.3,286046996.4,N
1505151095.1,286046993.3,N
1505151115.9,286046993.9,N
1505151135.7,286046992.5,N
1505151155.6,286046992.0,N
1505151175.4,286046990.3,N
1505151195.2,286046990.3,N
1505151215.1,286046994.6,N
1505151216.0,286046994.6,N
1505151235.8,286046994.9,N
1505151255.6,286047000.3,N
1505151275.5,286047004.4,N
1505151295.3,286047006.1,N
1505151315.1,286047009.5,N
1505151335.8,286047010.4,N
1505151355.7,286047011.8,N
1505151375.5,286047009.3,N
1505151395.3,286047014.7,N
1505151415.2,286047015.1,N
1505151435.9,286047011.1,N
1505151455.7,286047012.9,N
1505151475.6,286047013.7,N
1505151495.4,286047012.7,N
1505151515.2,286047016.1,N
1505151535.1,286047016.0,N
1505151536.0,286047016.0,N
1505151555.8,286047019.1,N
1505151575.6,286047020.3,N
1505151595.4,286047017.6,N
1505151615.3,286047015.8,N
1505151635.1,286047015.7,N
1505151655.8,286047018.0,N
1505151675.7,286047017.3,N
1505151695.5,286047016.3,N
1505151715.3,286047017.0,N
1505151735.2,286047016.4,N
1505151755.9,286047016.0,N
1505151775.7,286047017.9,N
1505151795.6,286047018.9,N
1505151815.4,286047021.0,P
1505151835.2,286047009.0,N
1505151855.1,286047010.6,N
1505151856.0,286047010.6,N
1505151875.8,286047006.4,N
1505151895.6,286047009.8,N
1505151915.5,286047008.2,N
1505151935.3,286047008.6,N
1505151955.1,286047006.3,N
1505151975.9,286047006.4,N
1505151995.7,286047005.2,N
1505152015.5,286047004.6,N
1505152035.3,286047003.8,N
1505152055.2,286047005.1,N
1505152075.0,286047001.7,N
1505152075.9,286047001.7,N
1505152095.7,286047001.8,N
1505152115.6,286047003.4,N
1505152135.4,286047007.8,N
1505152155.2,286047012.3,N
1505152175.1,286047013.7,P
1505152176.0,286047013.7,P
1505152195.8,286047005.4,N
1505152215.6,286047004.3,N
1505152235.5,286047004.1,N
1505152255.3,286047000.3,N
1505152275.1,286046995.0,N
1505152295.9,286046990.9,N
1505152315.7,286046988.4,N
1505152335.5,286046986.3,N
1505152355.4,286046988.1,N
1505152375.2,286046985.4,N
1505152395.0,286046988.2,N
1505152395.9,286046988.2,N
1505152415.8,286046986.3,N
1505152435.6,286046983.9,N
1505152455.4,286046983.4,N
1505152475.2,286046981.4,N
1505152495.1,286046980.6,N
1505152496.0,286046980.6,N
1505152515.8,286046981.8,N
1505152535.6,286046979.8,N
1505152555.5,286046977.3,N
1505152575.3,286046979.1,N
1505152595.1,286046977.4,N
1505152615.9,286046979.4,N
1505152635.7,286046978.1,N
1505152655.5,286046976.8,N
1505152675.4,286046972.7,N
1505152695.2,286046976.2,N
1505152715.0,286046975.9,N
1505152715.9,286046975.9,N
1505152735.8,286046978.4,N
1505152755.6,286046976.2,N
1505152775.4,286046980.2,N
1505152795.3,286046978.3,P
